DELTA 1 DEB, 13531

Orbit data source: Space-Track

DELTA 1 DEB, 13531 is space debris in SSO originally from a launch on Thu, 29 Jul 1976 UTC launched from the Air Force Western Test Range (AFWTR). Debris objects in space refer to the collection of defunct objects orbiting the Earth. Examples of debris include non-operational satellites, rocket bodies, and fragments generated from explosions, collisions, or faulty payload assembly.

Loading next visibility...
Identifier
13531, 1976-077ED
Orbit
SSO
Country
Flag of USUS
Related business
Manufacturer
Unknown
Mission
Spacecraft
Bus & Motor
Unknown
Mass
Unknown
Launch date (UTC)
1976-07-29 (50 years ago)
Launch vehicle
Unknown
Launch site
Air Force Western Test Range (AFWTR)
Object type
Payload
Rocket body
Debris
Shape & HBR
Unknown shape, 0.1 m
Radar Cross Section
Medium (>0.1 m² and <1 m²)

Expand to show TLE details & history
Last TLE update: 8 hours ago

TLE from 8 hours ago
0 DELTA 1 DEB
1 13531U 76077ED  26256.17739721 -.00000041  00000-0  40929-4 0  9992
2 13531 102.7644 234.7092 0142324  16.2705 357.8172 12.17165492966768
Epoch: 2026-09-13T04:15Z
TLE epoch observation values (Epoch: 2026-09-13T04:15:27.118Z)
Latitude
13.64416°
Longitude
175.53357°
Altitude
1,493.123 km
Speed
7.169 km/s
True Right ascension
15h 26m 17s
True Declination
13° 34' 22"
Sunlit
Object was in daylight at epoch
Visualization orbit readout
Latitude
Unknown
Longitude
Unknown
Altitude
Unknown
Speed
Unknown
Apparent Right ascension
Unknown
Apparent Declination
Unknown
Sunlit
N/A
Visualization observer readout
Local Sidereal Time
04:57:34
Azimuth
Unknown
Elevation
Unknown
Doppler factor
Unknown
Orbital elements
Apogee altitude
1,716.146 km
Perigee altitude
1,488.977 km
Semi-major axis
7,980.698 km
Eccentricity
0.01423
Inclination
102.7644°
RAAN
234.7092°
Arg. of periapsis
16.2705°
True anomaly
357.75396°
Mean anomaly
357.8172°
Eccentric anomaly
357.78569°
Mean motion
3.04426 °/min
Orbital period
118.26 mins
BSTAR
0.000040929
Loading maneuver chart data...
Computing Atmospheric mass density...
Loading historical data...
Loading historical data...
Loading historical data...
Loading historical data...
Loading historical data...
Loading historical data...
Loading historical data...

Documentation

Showing up to 5 results
|